Погода в Сыпине

Китай     43°09′56″N   124°22′08″E
темп.,
°C
ветер,
м/с
пор.,
м/с
влажн.,
%
обл.,
%
осадки,
мм/ч
давл.,
гПа
погр.,
м
26 февраля, пт
пт2623:00−6всв3548100 0.0 1029125
02:00−6вюв235071 0.0 102844
05:00−7ююв22440 0.0 102821
08:00−5ю23360 0.0 102895
11:00+1з11231 0.0 1030408
14:00+3ю11221 0.0 1027619
17:00+1вюв11300 0.0 102821
20:00−1вюв22340 0.0 102821
27 февраля, сб
сб2723:00−1юв33360 0.0 102831
02:00−1ююв46380 0.0 102699
05:00−1ю4104053 0.0 1024199
08:00+1ююз9193777 0.0 1023502
11:00+7ююз11182594 0.0 10231004
14:00+9юз12192463 0.0 10211340
17:00+6юз7173592 0.0 1021783
20:00+3ююз7204669 0.0 1022684
28 февраля, вс
вс2823:00+2ююз10215774 0.0 1023688
02:00+2ююз9206987 0.0 1023726
05:00+1юз61675100 0.0 1024624
08:00+2зюз51279100 0.0 1026808
11:000ссз5784100 0.0 1027347
14:00−3ссв6990100 2.4 1028543
17:00−5ссв6990100 1.4 1030635
20:00−6ссв61087100 1.6 1033642
1 марта, пн
пн123:00−7ссв61167100 0.0 1035643
02:00−9св61260100 0.0 1037723
05:00−10св71162100 0.0 1038610
08:00−12св6959100 0.0 1039506
11:00−9ссв5851100 0.0 1038629
14:00−8ссв71048100 0.0 1035745
17:00−10св6105994 0.0 1033642
20:00−12св5106897 0.0 1034495
2 марта, вт
вт223:00−13св5107242 0.0 1033363
02:00−14ссв487537 0.0 1032277
05:00−15ссв37780 0.0 1032240
08:00−14св34710 0.0 1032235
11:00−8ссв11460 0.0 1031369
14:00−5зюз12350 0.0 1029586
17:00−6ююз23490 0.0 102782
20:00−8ю35610 0.0 102696